Location: Asheville, NC
(35.6000°N, 82.5500°W)
Time: 22:00:27

JUGNU - Pass Details

Date: 09 January 2018
Orbit: 836 x 864 km, 20.0° (Epoch: 23 March)

Event Time Altitude Azimuth Distance (km) Brightness Sun altitude
Rises 20:15:11 0° 242° (WSW) 3,420 ? -32.0°
Reaches altitude 10° 20:20:58 10° 199° (SSW) 2,483 ? -33.1°
Maximum altitude 20:21:23 10° 195° (SSW) 2,477 ? -33.2°
Drops below altitude 10° 20:21:49 10° 191° (S) 2,482 ? -33.3°
Enters shadow 20:22:28 10° 184° (S) 2,511 ? -33.4°
